User: anonymous
Location: Unspecified
(42.0334°N, 93.6656°W)
Time: 10:51:58
(UTC-05:00)
Language:

Iridium 63 - Orbit

View from above orbital plane
View from above orbital plane
View from above satellite
View from above satellite

Ground track
Ground track

The orbit data is extracted from the following two-line orbital elements,

1 25286U 98021B   14273.46671808  .00000514  00000-0  17634-3 0  9994
2 25286 086.3946 278.2988 0002457 104.9857 048.3971 14.34241380863017
Epoch (UTC): 30 September 2014 11:12:04
Eccentricity: 0.0002457
inclination: 86.3946°
perigee height: 776 km
apogee height: 779 km
right ascension of ascending node: 278.2988°
argument of perigee: 104.9857°
revolutions per day: 14.34241380
mean anomaly at epoch: 48.3971°
orbit number at epoch: 86301

The dashed part of the orbit path shows where the satellite is in the earth's shadow,  

DLR